AirNav   ProFlight Series 2 Aviation Headset
 
 578 users online  

PA99 St Lukes/Gnaden Huetten Heliport
Lehighton, Pennsylvania, USA

GOING TO LEHIGHTON?


FAA INFORMATION EFFECTIVE 16 JULY 2020

Location

FAA Identifier: PA99
Lat/Long: 40-49-57.3100N 075-43-37.4900W
40-49.955167N 075-43.624833W
40.8325861,-75.7270806
(estimated)
Elevation: 600 ft. / 183 m (estimated)
Variation: 12W (1985)
Time zone: UTC -4 (UTC -5 during Standard Time)
Zip code: 18235

Heliport Operations

Heliport use: Private use. Permission required prior to landing
Activation date: 02/1989
Control tower: no
ARTCC: NEW YORK CENTER
FSS: WILLIAMSPORT FLIGHT SERVICE STATION
Attendance: UNATNDD
Wind indicator: yes
Segmented circle: no

Heliport Communications

WX AWOS-3PT at 22N (2.1 nm SW): 119.350 (570-386-3423)
WX AWOS-3 at HZL (15 nm NW): 119.975 (570-459-4901)
WX ASOS at ABE (17 nm SE): 126.975 (610-266-3579)
WX AWOS-3 at XLL (19 nm SE): 127.875 (610-231-3111)

Nearby radio navigation aids

VOR radial/distance  VOR name  Freq  Var
FJCr307/13.9ALLENTOWN VORTAC117.5010W
ETXr002/15.2EAST TEXAS VOR/DME110.2009W
LVZr194/26.5WILKES-BARRE VORTAC111.6010W
PTWr357/37.4POTTSTOWN VORTAC116.5009W

Heliport Services

Runway Information

Helipad H1

Dimensions: 65 x 65 ft. / 20 x 20 m
Surface: asphalt
Latitude: 40-49.955167N
Longitude: 075-43.624833W
Elevation: 600.0 ft.
Traffic pattern: leftleft

Heliport Ownership and Management from official FAA records

Ownership: Privately-owned
Owner: GNADEN HUETTEN MEMORIAL HOSP
211 N. 12TH ST.
LEHIGHTON, PA 18235
Phone 610-377-7017
Manager: RONALD FELTENBERGER
211 N. 12TH ST.
LEHIGHTON, PA 18235
Phone 610-377-7017

Additional Remarks

A33 PARKING LOT
4 FT FENCE 38 FT N OF HELIPAD.
FOR CD CTC ALLENTOWN APCH AT 800-728-6322.

Instrument Procedures

There are no published instrument procedures at PA99.

Some nearby airports with instrument procedures:

22N - Jake Arner Memorial Airport (2 nm SW)
KHZL - Hazleton Regional Airport (15 nm NW)
KABE - Lehigh Valley International Airport (17 nm SE)
KXLL - Allentown Queen City Municipal Airport (19 nm SE)
N43 - Braden Airpark (23 nm E)
 
Loc | Ops | Rwys | IFR | FBO | Links
Com | Nav | Svcs | Stats | Notes
Area around PA99 (St Lukes/Gnaden Huetten Heliport)
 
Road maps at: MapQuest Bing Google
 
Aerial photo
No photo
 
Sectional chart

 
Airport distance calculator
Flying to St Lukes/Gnaden Huetten Heliport? Find the distance to fly.

From to PA99

Sunrise and sunset
Times for 13-Aug-2020
 Local
(UTC-4)
 Zulu
(UTC)
Morning civil twilight05:4309:43
Sunrise06:1310:13
Sunset20:0200:02
Evening civil twilight20:3200:32

Current date and time
Zulu (UTC)  13-Aug-2020 05:29:23
Local (UTC-4)  13-Aug-2020 01:29:23
 
METAR
K22N 
2nm SW 
130515Z AUTO 00000KT 7SM CLR 20/20 A3011 RMK AO2
KHZL 
15nm NW 
130515Z AUTO 00000KT 10SM CLR 18/17 A3018 RMK AO2
KABE 
17nm SE 
130451Z 00000KT 10SM CLR 23/21 A3008 RMK AO2 SLP183 T02280211 403220222
KXLL 
19nm SE 
130515Z AUTO 00000KT 10SM CLR 23/22 A3009 RMK AO2
TAF
KABE 
17nm SE 
121727Z 1218/1318 VRB03KT P6SM SCT040 BKN150 FM130700 VRB02KT P6SM BKN040 TEMPO 1309/1312 5SM BR FM131200 VRB03KT P6SM VCSH BKN040
NOTAMs
Click for the latest NOTAMs
NOTAMs are issued by the DoD/FAA and will open in a separate window not controlled by AirNav.

 

 
 

Would you like to see your business listed on this page?

 If your business provides an interesting product or service to pilots, flight crews, aircraft, or users of the St Lukes/Gnaden Huetten Heliport, you should consider listing it here.  To start the listing process, click on the button below
 
Add a business
 

Other Pages about St Lukes/Gnaden Huetten Heliport

Update a link
 
Copyright © AirNav, LLC. All rights reserved. Privacy Policy  Contact